{"data":{"norad_id":41785,"epoch":"2026-05-25T04:48:40.074048Z","epoch_age_seconds":54137,"freshness":"FRESH","line1":"1 41785U 16059C   26145.20046382  .00000578  00000+0  99006-4 0  9996","line2":"2 41785  97.7759 154.9572 0008107 307.0476  52.9990 14.72254833517193","mean_motion":14.72254833,"eccentricity":0.0008107,"inclination_deg":97.7759,"raan_deg":154.9572,"arg_perigee_deg":307.0476,"mean_anomaly_deg":52.999,"bstar":9.9006e-5,"rev_number":51719,"period_min":97.809154211824,"perigee_km":648.17812297809,"apogee_km":659.57983368536,"semimajor_km":7032.0159783317,"source":"CELESTRAK","updated_at":"2026-05-25T13:38:12.823870Z"}}